SL-12 DEB, 44982

Orbit data source: Space-Track

SL-12 DEB, 44982 is space debris in HEO originally from a launch on Mon, 25 Dec 2006 UTC launched from the Tyuratam Missile And Space Complex (TTMTR). Debris objects in space refer to the collection of defunct objects orbiting the Earth. Examples of debris include non-operational satellites, rocket bodies, and fragments generated from explosions, collisions, or faulty payload assembly.

Loading next visibility...
SL-12 DEB details
Identifier
44982, 2006-062S
Orbit
HEO
Last TLE update2 days ago
Origin
Flag of CISVVKO VKS (CIS)
ManufacturerRKKE
MissionSpacecraft
Bus & MotorUnknown
MassUnknown
Launch date (UTC)
2006-12-25 (18 years ago)
Launch vehicleUnknown
Launch site
Tyuratam Missile And Space Complex (TTMTR)
Object type
Payload
Rocket body
Debris
Shape & HBRUnknown
Radar Cross SectionMedium (>0.1 m² and <1 m²)

Expand to show TLE details & history

TLE from 2 days ago
0 SL-12 DEB
1 44982U 06062S   24337.68545229  .00000251  00000-0  19922-2 0  9994
2 44982  64.9237 199.7459 5553168 294.1788  18.6089  4.28176244 79518
Epoch: 2024-12-02T16:27Z
Definitive object data (Epoch: 2024-12-02T16:27:03.077Z)
Latitude-0.00012°
Longitude-119.01615°
Altitude2,661.999 km
Speed7.957 km/s
True Right ascension13h 19m 00s
True Declination0° 00' 00"
Sunlit
Object was in daylight at TLE epoch
Visualization TLE readout
Latitude56.04703°
Longitude16.41125°
Altitude18,538.278 km
Speed2.67 km/s
Apparent Right ascension21h 46m 14s
Apparent Declination42° 19' 28"
Sunlit
Object is in daylight
Visualization observer readout
Local Sidereal Time08:05:22
Azimuth341.576° N
Elevation-4.644°
Doppler factor1
Orbital elements
Apogee altitude18,535.82 km
Perigee altitude745.054 km
Semi-major axis16,018.574 km
Eccentricity0.5553168
Inclination64.9237°
RAAN199.7459°
Arg. of periapsis294.1788°
True anomaly66.07707°
Mean anomaly18.6089°
Eccentric anomaly38.35068°
Mean motion1.07055 °/min
BSTAR0.0019922
Orbital period336.28 mins
Loading maneuver chart data...
Loading historical data...
Loading historical data...
Loading historical data...
Loading historical data...
Loading historical data...
Loading historical data...
Loading historical data...

SL-12 DEB Visibility forecast

Observer location: undefined°, undefined

Span
Click to sort rows by Start time (UTC) header in descending order
Start Az.
Max El. time (UTC)
Max El. Az.
Max El.
End time (UTC)
End Az.
106 mins2024-12-04 13:23:57.670Z118.544° SE2024-12-04 13:46:57.670Z66.148° ENE27.138°2024-12-04 15:09:57.670Z26.96° NE
251 mins2024-12-04 19:04:57.670Z259.285° W2024-12-04 19:48:57.670Z338.136° N40.287°2024-12-04 23:15:57.670Z104.684° ESE
222 mins2024-12-05 01:27:57.670Z325.131° NNW2024-12-05 03:46:57.670Z286.917° WNW39.98°2024-12-05 05:09:57.670Z212.705° SW
|